Regional Weather Roundup
Issued by NWS

Home | Current Version | Previous Version | Text Only | Print | Product List | Glossary Off
Versions: 1 2 3 4 5 6 7 8 9 10 11 12 13 14 15 16 17 18 19 20 21 22 23 24 25 26 27 28 29 30 31 32 33 34 35 36 37 38 39 40 41 42 43 44 45 46 47 48 49 50

138
ASUS45 KPSR 261710
RWRAZ

ARIZONA HOURLY REGIONAL WEATHER ROUNDUP
NATIONAL WEATHER SERVICE PHOENIX AZ
1000 AM MST FRI MAY 26 2017

NOTE: FAIR INDICATES FEW OR NO CLOUDS BELOW 12,000 FEET WITH NO
SIGNIFICANT WEATHER AND/OR OBSTRUCTIONS TO VISIBILITY.

AZZ001>003-036-261800-
NORTHWEST ARIZONA

CITY           SKY/WX    TMP DP  RH WIND       PRES   REMARKS
BULLHEAD CITY  SUNNY     82  30  15 S16G24    29.77S
KINGMAN        SUNNY     77  29  17 SW22G29   29.87R
$$

AZZ004>008-015-016-018-261800-
NORTH CENTRAL ARIZONA

CITY           SKY/WX    TMP DP  RH WIND       PRES   REMARKS
GRAND CANYON   SUNNY     65  19  17 S21G29    30.02S
WILLIAMS       SUNNY     64  18  16 SW21G28   30.04R
PRESCOTT       SUNNY     69  25  19 SE14G20   29.99R
FLAGSTAFF      SUNNY     60  16  18 SW18G29   30.06S
PAYSON         SUNNY     70  14  11 S16G24    30.06R
PAGE           SUNNY     78  18  10 SW9G18    29.83F
$$

AZZ009>014-017-261800-
NORTHEAST ARIZONA

CITY           SKY/WX    TMP DP  RH WIND       PRES   REMARKS
WINSLOW        SUNNY     77   5   6 SW21G33   29.97R
SAINT JOHNS    SUNNY     75  16  10 SW23G35   30.03R
WINDOW ROCK    SUNNY     68  16  13 SW20G37   30.07F
SHOW LOW       SUNNY     66  16  14 S30G44    30.05S
$$

AZZ540-542>544-546-548-261800-
GREATER PHOENIX AREA

CITY           SKY/WX    TMP DP  RH WIND       PRES   REMARKS
PHOENIX        SUNNY     85  29  13 S15G21    29.83S
BUCKEYE        SUNNY     81  32  17 S10       29.85S
GLENDALE       SUNNY     84  30  14 S6        29.86R
LUKE AFB       SUNNY     83  32  15 SE8       29.84S
DEER VALLEY    LGT RAIN  82  27  13 S14       29.86R
SCOTTSDALE     SUNNY     83  28  13 S14G22    29.88R
MESA-FALCON    SUNNY    N/A N/A N/A S16G25    29.86S
MESA-GATEWAY   SUNNY     84  30  14 S12       29.87S
CHANDLER       SUNNY     86  27  11 S23G29    29.85R
$$

AZZ539-553-261800-
SOUTHWEST MARICOPA COUNTY AND PINAL COUNTY

CITY           SKY/WX    TMP DP  RH WIND       PRES   REMARKS
CASA GRANDE    SUNNY     85  31  14 S15G23    29.87S
GILA BEND      FAIR      86  31  14 SW18      29.82S
$$

AZZ503-504-507>509-261800-
SOUTHEAST ARIZONA

CITY           SKY/WX    TMP DP  RH WIND       PRES   REMARKS
TUCSON         SUNNY     86  29  12 S8        29.95S
DAVIS-MONTHAN  SUNNY     84  27  12 S10G22    29.94S
RYAN FIELD     SUNNY     86  27  11 SW18G24   29.93S
NOGALES        SUNNY     83  26  12 SW17G26   30.02R
SIERRA VISTA   SUNNY     79  28  15 SW17G24   30.06S
DOUGLAS        LGT RAIN  82  28  14 S18       30.03F
SAFFORD        SUNNY     85  23  10 MISG      29.93F
$$

AZZ532-261800-
SOUTHWEST ARIZONA

CITY           SKY/WX    TMP DP  RH WIND       PRES   REMARKS
YUMA           SUNNY     77  38  24 SW5       29.83R
$$

CAZ041-043-047-048-061-525>527-560>570-261800-
SOUTHERN CALIFORNIA

CITY           SKY/WX    TMP DP  RH WIND       PRES   REMARKS
DOWNTOWN L.A.  CLOUDY    69  51  52 VRB3      29.97S
L.A. AIRPORT   CLOUDY    63  53  70 SW9       29.99R
SAN DIEGO      CLOUDY    65  48  54 S5        30.01R
BURBANK        CLOUDY    61  49  64 SE6       29.98R
ONTARIO        PTSUNNY   64  46  52 VRB3      29.98S
RIVERSIDE      PTSUNNY   64  48  56 CALM      29.98S
PALM SPRINGS   SUNNY     76  43  30 NW15      29.83R
EL CENTRO NAS  MOSUNNY   79  35  20 SW6       29.83R
IMPERIAL       LGT RAIN  79  43  27 W9        29.81R
BLYTHE         SUNNY     79  42  26 S14       29.81R
NEEDLES        SUNNY     86  26  11 SW16G24   29.79R
$$

NVZ020-UTZ003-261800-
SOUTHERN NEVADA-UTAH

CITY           SKY/WX    TMP DP  RH WIND       PRES   REMARKS
LAS VEGAS      SUNNY     79  27  14 S9        29.76R
SALT LAKE CITY CLOUDY    58  38  47 W6        29.84R
$$

NMZ009-TXZ055-261800-
NEW MEXICO-WEST TEXAS

CITY           SKY/WX    TMP DP  RH WIND       PRES   REMARKS
ALBUQUERQUE    MOSUNNY   73  15  11 VRB6      30.04F
EL PASO        MOSUNNY   84  23  10 W17       30.02S
$$


........................KEY........................
SKY/WX - SKY CONDITION/WEATHER
TMP    - TEMPERATURE IN FAHRENHEIT
DP     - DEW POINT IN FAHRENHEIT
RH     - RELATIVE HUMIDITY IN PERCENT
WIND   - DIRECTION AND SPEED IN MILES PER HOUR (MPH)
VRB    - VARIABLE WIND DIRECTION
PRES   - MEAN SEA LEVEL PRESSURE IN INCHES OF MERCURY
         F - FALLING PRESSURE   R - RISING PRESSURE
         S - STEADY PRESSURE
VSB    - VISIBILITY IN MILES
HX     - HEAT INDEX IN FAHRENHEIT
WCI    - WIND CHILL INDEX IN FAHRENHEIT
TC     - TEMPERATURE IN CELSIUS WHICH IS ALSO KNOWN AS
         TEMPERATURE IN CENTIGRADE
AFB    - AIR FORCE BASE
         LUKE AFB IS LUKE AIR FORCE BASE
         DAVIS-MONTHAN IS DAVIS-MONTHAN AIR FORCE BASE
NAS    - NAVAL AIR STATION
         EL CENTRO NAS IS EL CENTRO NAVAL AIR STATION
N/A    - NOT AVAILABLE





USA.gov is the U.S. government's official web portal to all federal, state and local government web resources and services.